Terminal Aerodrome Forecast
Issued by NWS

Home | Current Version | Previous Version | Text Only | Print | Product List | Glossary On
Versions: 1 2 3 4 5 6 7 8 9 10 11 12 13
000
FTUS43 KDDC 311120
TAFHYS
TAF
KHYS 311120Z 3112/0112 36009KT P6SM OVC015
     FM311400 05009KT P6SM SCT015
     FM311800 10012KT P6SM SKC=

USA.gov is the U.S. government's official web portal to all federal, state and local government web resources and services.